Location: Kergrach
(48.3833°N, 4.5167°W)
Time: 13:49:58
(UTC+00:00)

Cosmos 1459 Rocket - Pass Details

Date: 18 February 2020
Orbit: 938 x 999 km, 83.0° (Epoch: 27 March)

Event Time Altitude Azimuth Distance (km) Brightness Sun altitude
Rises 05:34:51 0° 350° (N) 3,638 6.9 -18.3°
Reaches altitude 10° 05:37:20 10° 351° (N) 2,696 6.2 -17.9°
Maximum altitude 05:43:32 88° 82° (E) 974 4.0 -16.8°
Drops below altitude 10° 05:49:47 10° 172° (S) 2,720 6.4 -15.8°
Sets 05:52:17 0° 173° (S) 3,672 7.1 -15.4°
